Location: Buckenweiler
(49.0667°N, 10.2500°E)
Time: 09:06:04
(UTC+00:00)

Gbstr 26 Del rocket - Pass Details

Date: 18 January 2026
Orbit: 490 x 1217 km, 51.8° (Epoch: 19 February)

Event Time Altitude Azimuth Distance (km) Brightness Sun altitude
Exits shadow 04:34:13 33° 227° (SW) 1,804 5.0 -24.3°
Maximum altitude 04:37:47 72° 152° (SSE) 1,139 4.3 -23.7°
Drops below altitude 10° 04:44:20 10° 70° (ENE) 2,699 7.2 -22.6°
Sets 04:46:44 0° 68° (ENE) 3,542 8.0 -22.2°
